Date,TemperatureHighF,TemperatureAvgF,TemperatureLowF,DewpointHighF,DewpointAvgF,DewpointLowF,HumidityHigh,HumidityAvg,HumidityLow,PressureMaxIn,PressureMinIn,WindSpeedMaxMPH,WindSpeedAvgMPH,GustSpeedMaxMPH,PrecipitationSumIn
2014-1-1,47,33,22,28,24,18,86,69,46,30.38,30.09,4,1,10,0.00
2014-1-2,32,30,26,29,27,24,95,89,82,30.09,29.65,3,0,8,0.17
2014-1-3,29,17,10,27,6,1,93,61,41,30.48,29.68,11,5,28,0.00
2014-1-4,23,11,7,11,6,4,87,79,57,30.47,30.42,3,1,9,0.00
2014-1-5,34,31,29,33,30,23,97,94,79,30.14,29.65,2,0,5,0.19
2014-1-6,46,30,4,45,19,-12,98,66,44,30.09,29.47,12,6,30,0.06
2014-1-7,17,7,1,-1,-8,-13,73,49,34,30.45,30.10,9,5,23,0.00
2014-1-8,28,16,4,13,6,-1,87,66,44,30.59,30.45,3,1,8,0.00
2014-1-9,36,29,20,24,19,11,81,65,52,30.63,30.48,7,1,15,0.00
2014-1-10,41,35,31,38,32,23,97,87,66,30.50,30.11,4,1,10,0.15
2014-1-11,54,44,34,53,42,33,99,92,58,30.10,29.39,11,3,26,0.29
2014-1-12,49,43,30,37,31,26,87,63,50,30.07,29.56,10,4,22,0.00
2014-1-13,54,42,27,39,32,25,92,71,51,30.06,29.81,4,1,12,0.00
2014-1-14,50,45,34,45,40,32,95,85,64,29.88,29.68,6,2,14,0.08
2014-1-15,47,36,30,38,32,28,96,85,59,29.98,29.86,6,2,16,0.03
2014-1-16,38,32,26,30,22,17,92,67,48,30.01,29.87,4,2,11,0.02
2014-1-17,50,36,27,32,26,20,83,66,44,29.93,29.80,4,2,11,0.00
2014-1-18,34,24,18,29,14,9,91,64,50,29.98,29.83,8,4,21,0.01
2014-1-19,43,31,18,27,20,11,84,65,46,29.92,29.72,12,4,27,0.00
2014-1-20,52,40,33,30,26,22,70,58,41,29.87,29.64,8,5,19,0.00
2014-1-21,36,26,16,29,23,11,95,88,71,29.91,29.75,6,3,19,0.29
2014-1-22,17,10,3,9,0,-4,80,62,42,30.10,29.92,6,3,18,0.00
2014-1-23,21,11,1,13,1,-3,87,67,48,30.48,30.10,7,3,18,0.00
2014-1-24,21,13,5,2,-2,-6,62,52,38,30.53,30.03,8,4,16,0.00
2014-1-25,34,25,15,22,12,2,75,56,47,30.01,29.43,11,4,26,0.00
2014-1-26,28,23,11,14,8,3,70,53,44,29.87,29.69,9,2,29,0.00
2014-1-27,44,30,16,32,14,0,71,53,41,30.19,29.62,11,5,31,0.00
2014-1-28,14,10,6,4,-5,-9,77,49,40,30.43,30.20,6,2,19,0.00
2014-1-29,24,14,8,6,-2,-8,79,50,30,30.35,30.24,6,3,16,0.00
2014-1-30,30,18,3,10,4,-3,78,55,37,30.44,30.15,7,2,15,0.00
2014-1-31,50,33,24,20,15,9,72,48,27,30.21,30.09,7,3,16,0.00